RH
100 100 100 100 100 100 99 97 95 94 92 98 99 100 100 100 100 99 100 98 100 100 100 100 99 94 91 94 100 100 98 93 91 90 100 100 100 100 100 100 99 99 100
96 99 100 100 100 99 97 96 96 93 92 97 98 99 100 100 100 99 100 100 100 100 100 100 100 100 100 100 100 100 99 97 99 98 98 100 100 100 100 100 100 100 98
100 99 99 100 99 96 95 94 93 93 94 94 99 99 99 99 99 100 100 100 96 97 100 100 100 99 98 100 100 99 99 98 100 99 96 98 98 100 100 100 99 100 100
100 99 97 96 99 100 98 97 96 94 95 96 99 99 100 99 98 100 98 95 98 97 100 99 99 100 99 100 100 100 99 97 98 100 98 86 80 98 99 99 100 100 98
97 98 98 97 97 98 100 100 99 97 100 100 100 100 100 100 99 99 100 100 99 100 100 99 99 100 100 98 100 100 100 100 100 99 97 93 79 86 88 97 100 100 98
96 96 97 99 99 99 98 98 99 99 100 100 100 100 100 100 99 100 100 98 100 99 93 98 94 100 97 100 99 100 100 100 100 99 99 94 79 84 81 84 98 97 99
96 96 96 96 96 95 96 97 96 97 98 99 98 100 100 100 97 97 97 98 98 99 98 100 98 93 99 99 93 98 100 100 100 100 100 98 90 84 75 78 88 98 99
96 96 97 97 98 97 96 97 97 97 96 97 98 98 99 99 97 97 93 95 100 100 98 100 99 93 97 100 97 92 96 100 100 100 100 100 100 93 89 86 83 100 100
97 96 97 96 96 96 96 97 96 97 96 96 97 97 97 97 98 97 97 97 95 100 93 100 98 99 99 100 97 100 100 100 99 100 100 100 100 96 93 93 85 85 93
97 96 96 96 96 96 96 96 96 93 97 97 96 96 96 97 98 98 97 97 97 95 96 100 96 98 100 98 98 99 99 100 99 100 100 100 100 95 75 72 90 93 79
97 97 97 96 96 96 96 96 96 96 94 95 95 95 95 96 98 97 98 98 98 97 95 92 98 97 97 94 97 98 98 98 98 99 100 100 100 96 97 75 50 58 57
97 97 97 96 95 92 94 93 95 93 94 97 95 94 95 96 94 94 94 95 95 98 97 93 89 92 94 97 96 98 96 98 98 98 97 97 98 98 95 82 87 68 54
97 97 96 84 37 29 26 36 50 72 87 90 91 93 93 93 93 95 96 95 94 92 93 96 97 92 85 89 96 97 96 96 96 96 98 98 98 98 98 96 91 73 39
99 94 58 46 39 33 28 27 24 24 29 48 73 84 87 92 93 94 94 92 93 91 90 91 92 95 98 92 84 79 86 95 96 93 94 96 98 97 97 96 96 95 44
99 95 61 50 43 36 34 32 29 26 23 22 20 28 47 76 88 91 91 91 91 91 93 92 91 94 94 96 98 89 72 67 84 95 92 88 92 95 95 96 94 94 88
57 54 50 46 43 40 38 32 31 30 28 24 23 24 22 20 22 43 76 86 90 89 90 90 90 92 96 100 98 96 97 93 58 63 96 95 67 53 67 68 48 44 43
61 55 53 48 45 42 41 38 36 34 32 29 27 26 25 24 24 23 21 21 44 75 86 88 87 90 95 92 100 97 92 94 97 94 67 50 58 78 73 45 31 27 30
71 64 51 51 47 44 41 41 43 43 39 37 34 32 29 27 26 25 24 25 23 22 25 48 75 83 88 94 96 98 83 85 89 94 96 97 93 82 64 44 31 27 25
71 75 62 49 47 42 40 40 41 42 44 43 42 40 38 36 34 30 27 24 24 25 27 25 23 24 51 79 89 98 91 91 89 89 90 92 96 98 98 97 95 90 67
60 59 60 56 49 47 38 36 34 35 37 40 44 45 43 41 39 37 36 33 30 28 25 24 24 25 23 22 34 87 96 93 93 88 88 90 94 92 94 96 96 96 94
56 61 64 53 50 50 41 39 37 40 37 38 40 43 43 43 42 42 40 37 35 34 33 30 27 24 22 22 24 26 54 93 92 99 96 97 97 95 99 97 96 89 91
50 52 54 48 47 50 46 42 39 47 45 43 43 44 44 44 43 42 41 41 38 35 34 32 31 30 26 23 22 29 100 100 95 95 91 90 83 91 94 94 92 98 97
44 44 47 44 40 43 42 38 39 43 42 42 45 47 47 48 48 45 44 44 41 38 38 36 34 32 33 29 27 26 29 63 96 100 100 100 100 96 100 100 99 99 96
47 43 44 40 35 39 42 38 42 44 39 39 45 50 48 48 46 45 47 47 49 48 46 45 47 49 48 40 44 42 37 36 33 27 50 86 89 99 95 94 90 89 95
89 80 64 49 38 37 38 40 42 49 46 44 46 48 46 47 48 48 46 47 54 64 58 72 85 84 85 70 83 81 82 74 68 67 60 42 28 44 77 80 90 96 93
94 92 91 84 68 54 42 41 40 44 48 47 48 47 54 52 49 45 45 50 85 100 100 100 98 97 99 96 99 100 98 99 100 100 98 95 82 59 43 32 40 65 85
Wind_Speed
12 12 14 14 12 8 6 4 5 9 14 12 13 17 17 24 23 31 38 37 38 42 41 37 36 36 37 36 43 45 45 42 40 39 38 40 40 43 42 38 33 35 29
13 13 14 14 14 12 9 6 3 2 7 8 9 10 15 21 21 22 20 28 34 41 44 43 41 39 40 41 46 48 47 45 43 42 42 27 33 39 42 40 40 36 34
15 15 17 16 14 12 11 8 5 3 1 6 8 9 9 13 19 22 22 21 26 32 37 44 49 46 45 46 50 49 47 48 49 47 38 20 12 29 36 39 39 36 34
15 17 19 18 17 15 11 10 8 4 2 2 5 8 10 10 12 17 19 20 23 24 29 26 38 50 54 55 49 45 47 48 51 52 39 35 31 27 21 33 35 38 38
16 22 21 19 18 16 15 12 10 8 7 5 4 6 8 10 11 11 15 16 17 21 20 24 31 32 38 49 48 47 52 51 52 54 48 42 30 42 41 38 34 37 37
18 21 20 19 19 18 18 16 15 13 12 10 9 8 9 10 10 8 11 10 13 16 22 24 25 25 29 36 36 36 49 50 54 57 51 47 44 44 42 40 43 41 38
22 24 23 23 22 21 20 20 19 19 17 15 15 13 10 8 9 8 7 6 7 11 15 20 22 19 22 25 36 37 38 38 44 48 51 43 40 43 44 44 47 48 42
24 25 24 25 24 23 22 21 22 22 20 19 17 16 15 12 10 8 7 7 7 7 8 10 15 18 19 21 22 25 33 38 37 32 39 41 37 39 43 46 52 44 39
23 24 25 26 26 25 23 22 22 23 22 20 19 18 16 16 16 13 10 7 5 4 5 6 8 12 16 17 20 23 25 28 33 37 32 29 32 29 31 36 44 48 39
22 23 23 23 23 24 24 23 22 23 22 20 20 19 17 16 15 14 13 11 9 6 5 3 4 8 10 11 15 18 21 22 27 30 32 32 30 24 19 26 28 41 32
20 19 20 20 20 20 21 22 22 22 22 21 19 18 17 15 14 14 14 12 10 10 7 6 2 2 4 6 10 12 14 16 20 18 23 26 29 28 25 20 20 32 31
16 17 18 18 18 18 18 19 19 19 20 20 18 17 15 15 15 14 13 11 10 9 9 9 6 5 4 3 6 8 10 11 14 16 18 18 20 23 20 19 23 24 28
14 14 14 14 14 15 15 15 15 15 15 15 14 14 15 15 15 14 12 11 10 9 8 8 7 7 5 4 4 3 4 7 8 8 11 15 19 22 27 27 21 20 26
11 11 11 12 12 13 12 12 12 12 12 10 10 10 12 12 12 12 10 10 10 8 7 7 6 5 4 4 5 3 1 3 6 8 9 8 10 13 17 18 20 19 23
9 8 9 10 10 10 10 10 10 10 10 9 9 9 9 7 7 6 7 7 7 7 6 6 6 5 6 6 1 1 1 0 2 4 6 6 7 8 12 15 18 20 24
7 7 7 8 8 8 9 9 9 9 9 8 8 8 7 6 5 5 4 3 3 3 3 3 4 5 7 9 9 6 4 7 5 8 10 13 12 13 14 16 17 19 21
12 10 9 8 8 8 8 8 8 8 7 7 7 7 7 6 5 5 4 3 2 1 1 1 1 3 5 6 3 5 2 6 10 13 11 9 11 15 17 16 17 18 18
13 10 9 9 8 7 7 7 7 7 7 8 7 7 6 6 6 6 5 4 3 3 3 4 4 5 5 5 4 5 6 7 7 10 12 16 17 18 17 15 17 18 19
11 10 10 9 8 8 7 6 5 5 6 7 8 8 8 7 5 5 5 6 5 4 4 5 6 7 7 9 9 5 7 10 11 12 12 11 14 17 18 20 23 27 25
10 11 11 10 10 9 8 8 7 6 5 5 5 7 7 8 8 7 6 5 5 6 7 6 7 8 9 9 10 10 7 9 9 13 15 16 13 13 13 15 19 22 26
12 12 13 13 10 10 10 8 8 8 7 7 7 8 8 9 9 9 9 8 8 8 7 8 9 9 10 10 10 11 11 11 11 10 11 12 14 18 15 15 19 21 21
15 14 15 14 12 12 13 10 8 8 9 8 6 6 7 8 10 10 11 11 11 10 10 9 8 9 10 11 11 11 8 8 11 14 16 16 17 16 20 23 20 12 18
17 16 17 17 14 14 14 14 8 11 11 9 7 7 8 8 10 10 10 11 12 12 12 12 10 9 9 9 11 13 13 12 15 15 14 13 17 18 19 22 24 23 21
20 19 20 21 19 16 17 17 14 13 14 12 10 10 10 10 11 11 10 10 9 9 10 9 10 10 9 7 6 8 10 10 11 11 19 24 21 20 20 18 22 25 27
22 21 22 23 23 20 20 18 18 17 17 15 14 12 12 12 13 14 13 12 10 11 9 8 13 13 12 10 12 13 14 14 13 13 12 12 16 25 28 28 25 21 26
23 22 22 23 22 20 21 20 18 20 20 19 18 16 16 15 16 16 15 14 13 13 13 12 14 14 14 13 13 13 14 16 18 20 23 27 23 16 13 15 23 31 30
Wind_Direction
66 74 81 89 94 109 124 139 180 210 229 226 234 224 215 214 214 209 194 204 198 197 200 209 211 205 205 200 193 190 189 182 184 181 172 167 176 182 190 177 179 189 183
62 65 73 80 80 78 76 75 87 197 226 239 220 231 220 221 223 227 213 198 197 197 195 200 203 209 210 203 199 196 188 186 187 182 173 155 167 170 173 184 181 179 180
44 53 63 68 75 75 71 60 53 39 277 236 231 223 219 219 225 225 225 226 211 228 209 197 195 196 206 203 199 200 201 191 186 189 180 158 172 167 168 172 176 171 174
50 58 62 64 67 72 74 77 69 65 64 231 214 209 208 203 204 209 219 222 222 223 216 215 200 198 198 197 200 211 208 209 196 191 192 193 188 179 168 172 170 169 172
56 61 64 68 72 80 81 81 83 90 84 100 138 159 177 181 197 194 208 207 214 219 221 226 213 215 202 207 199 196 203 204 207 208 195 199 198 185 184 178 176 174 176
65 71 74 76 76 80 83 83 85 87 95 97 103 119 140 159 175 186 195 205 215 211 223 230 224 229 224 215 211 207 202 202 200 197 207 200 198 193 189 190 188 188 186
71 73 73 75 75 77 81 84 86 86 87 91 100 99 106 120 139 167 168 179 204 205 196 213 215 221 232 233 221 225 219 210 207 210 204 208 206 211 200 206 197 189 191
73 74 73 74 76 79 82 86 87 87 88 90 90 96 97 96 103 111 122 174 180 200 186 219 217 214 228 225 227 233 232 225 226 223 208 207 209 209 209 207 202 186 194
75 74 73 74 74 75 77 81 85 85 86 87 90 91 92 95 91 92 100 119 124 160 177 230 207 219 223 227 231 233 238 237 227 226 230 224 213 210 209 212 213 205 186
74 70 68 70 74 75 78 79 80 82 83 85 85 84 85 88 93 96 93 89 93 97 117 198 205 228 231 229 231 230 232 242 243 233 227 228 225 212 218 216 213 214 219
71 68 65 63 64 69 74 76 78 79 80 79 81 84 84 85 86 86 87 85 84 87 100 97 140 180 212 207 227 230 235 235 242 236 227 223 223 220 220 222 214 222 222
73 65 60 57 57 59 64 68 72 74 73 74 75 79 82 81 80 78 77 78 81 78 75 80 90 107 118 175 225 217 210 224 233 241 245 243 239 225 209 223 229 231 232
65 60 58 53 53 56 59 62 66 69 72 74 75 78 77 76 78 80 77 74 75 78 81 77 67 67 80 118 159 183 204 224 216 212 222 227 230 230 224 215 221 231 233
56 46 47 49 49 50 54 56 59 63 66 66 70 74 75 74 73 72 74 77 78 77 76 83 89 86 71 40 29 48 135 214 226 220 210 202 204 206 213 216 217 220 236
44 33 29 33 40 48 53 57 54 57 61 58 56 58 57 59 65 71 71 71 71 75 82 89 96 99 97 56 18 180 137 185 242 226 218 215 228 213 214 222 231 232 235
29 16 12 19 27 37 38 49 49 56 55 51 53 54 51 45 37 36 44 52 57 62 76 92 109 124 132 96 59 2 237 213 186 209 217 201 199 205 209 212 216 219 226
1 359 357 2 7 14 18 29 37 41 46 49 49 41 36 34 37 35 24 10 0 334 289 270 201 175 176 175 138 357 284 236 227 225 218 204 209 215 215 213 209 210 214
341 346 354 353 355 356 360 1 4 6 19 30 38 42 40 28 19 12 7 8 356 336 310 279 255 246 229 220 220 338 270 264 261 254 244 237 232 232 231 224 217 216 218
333 336 339 344 346 344 346 346 343 343 354 5 6 7 13 21 22 15 3 353 349 333 312 304 293 274 255 251 239 275 274 266 257 259 261 262 256 248 241 243 239 236 228
327 325 324 327 330 324 333 339 340 339 346 347 344 345 348 352 351 354 356 354 339 329 320 311 298 292 284 268 255 252 263 263 271 266 258 250 252 266 260 249 254 248 244
317 316 314 314 318 314 319 331 335 332 333 330 329 328 332 336 335 336 336 335 335 330 322 317 312 304 296 289 277 267 268 256 264 269 267 265 251 238 235 249 263 260 260
308 305 302 305 308 306 307 313 321 305 307 311 315 311 316 318 314 318 320 322 323 325 325 322 317 309 301 295 289 277 294 290 280 280 277 272 266 264 250 237 236 251 254
304 302 298 297 298 297 298 299 312 295 295 295 297 298 302 299 301 307 307 305 308 314 315 317 322 319 310 301 292 291 291 281 253 251 267 264 251 256 261 259 255 256 255
300 297 292 290 290 289 288 291 293 288 285 286 288 286 291 294 294 297 297 293 293 289 291 314 334 344 351 343 326 298 295 307 310 295 268 262 254 253 247 257 253 252 255
297 293 288 286 286 286 282 283 284 283 281 282 280 282 286 286 288 290 291 289 283 284 297 318 324 325 325 323 308 303 309 307 308 304 301 291 280 266 257 255 258 256 254
298 293 290 287 287 283 277 274 273 275 276 275 274 278 279 281 281 283 280 278 276 278 276 278 289 304 309 303 299 290 288 285 287 281 284 280 272 273 278 272 263 258 257